Home   Weather   Częstochowa   Past weeks
Flag for Poland

Past Weather in Częstochowa, Poland — Yesterday and Last 2 Weeks

Now
52 °F

Clear.


Feels Like: 51 °F
Forecast: 66 / 48 °F
Wind: 3 mph from Southwest

Location: Katowice Airport

Current Time: Oct 19, 2019 at 12:02:48 am

Latest Report: Oct 18, 2019 at 11:30 pm


Visibility: 5 mi

Pressure: 29.95 "Hg

Humidity: 88%

Dew Point: 48 °F

Location of CzęstochowaLocation

Past Weather in Częstochowa — Graph

°F

Częstochowa Temperature Yesterday

Maximum temperature yesterday: 66 °F (at 2:00 pm)
Minimum temperature yesterday: 41 °F (at 6:30 am)
Average temperature yesterday: 54 °F

High & Low Weather Summary for the Past Weeks

 TemperatureHumidityPressure
High73 °F (Oct 15, 4:00 pm)100% (Oct 4, 5:30 am)30.15 "Hg (Oct 4, 5:30 am)
Low23 °F (Oct 7, 5:30 am)43% (Oct 6, 2:00 pm)29.71 "Hg (Oct 5, 11:00 am)
Average51 °F77%29.97 "Hg
* Reported Oct 3 10:00 pm — Oct 18 10:30 pm, Częstochowa. Weather by CustomWeather, © 2019

Note: Actual official high and low records may vary slightly from our data, if they occured in-between our weather recording intervals... More about our weather records

Advertising

Częstochowa Weather History for the Previous 24 Hours

Scroll right to see more
 ConditionsComfort  
Time TempWeatherWind HumidityBarometerVisibility
10:30 pm
Fri, Oct 18
54 °FClear.5 mph82%29.95 "Hg10 mi
10:00 pm54 °FClear.5 mph82%29.95 "Hg10 mi
9:30 pm55 °FClear.6 mph77%29.95 "Hg10 mi
9:00 pm55 °FClear.5 mph77%29.95 "Hg10 mi
8:30 pm55 °FClear.8 mph77%29.95 "Hg10 mi
8:00 pm55 °FClear.6 mph77%29.95 "Hg10 mi
7:30 pm54 °FClear.3 mph77%29.95 "Hg5 mi
7:00 pm54 °FClear.3 mph82%29.95 "Hg10 mi
6:30 pm55 °FClear.5 mph77%29.92 "Hg10 mi
6:00 pm61 °FClear.3 mph63%29.92 "Hg10 mi
5:30 pm63 °FSunny.6 mph59%29.92 "Hg10 mi
5:00 pm63 °FSunny.6 mph59%29.92 "Hg10 mi
4:30 pm64 °FSunny.8 mph56%29.92 "Hg10 mi
4:00 pm64 °FSunny.13 mph52%29.92 "Hg10 mi
3:30 pm66 °FSunny.14 mph49%29.95 "Hg10 mi
3:00 pm66 °FPassing clouds.14 mph49%29.95 "HgN/A
2:30 pm64 °FScattered clouds.15 mph52%29.95 "HgN/A
2:00 pm66 °FPassing clouds.15 mph56%29.95 "HgN/A
1:30 pm64 °FPassing clouds.14 mph56%29.98 "HgN/A
1:00 pm64 °FScattered clouds.13 mph56%29.98 "HgN/A
12:30 pm64 °FPassing clouds.9 mph56%29.98 "HgN/A
12:00 pm63 °FSunny.10 mph59%30.01 "Hg10 mi
11:30 am63 °FSunny.12 mph59%30.01 "Hg10 mi
11:00 am61 °FSunny.10 mph63%30.01 "Hg10 mi
10:30 am59 °FSunny.6 mph68%30.01 "Hg10 mi
10:00 am54 °FPassing clouds.3 mph77%30.01 "HgN/A
9:30 am52 °FPartly sunny.7 mph82%30.01 "HgN/A
9:00 am52 °FSunny.6 mph82%30.01 "Hg10 mi
8:30 am50 °FPassing clouds.3 mph88%30.01 "Hg6 mi
8:00 am43 °FClear.2 mph93%30.01 "Hg5 mi
7:30 am41 °FFog.3 mph93%30.01 "Hg5 mi
7:00 am41 °FFog.3 mph93%30.01 "Hg3 mi
6:30 am41 °FFog.2 mph93%30.01 "Hg2 mi
6:00 am43 °FClear.2 mph93%30.01 "Hg4 mi
5:30 am45 °FClear.3 mph87%30.01 "Hg4 mi
5:00 am43 °FClear.3 mph93%30.01 "Hg6 mi
4:30 am43 °FClear.2 mph93%30.01 "Hg4 mi
4:00 am45 °FClear.2 mph93%30.01 "Hg5 mi
3:30 am46 °FClear.3 mph93%30.01 "Hg6 mi
3:00 am46 °FClear.2 mph93%30.01 "Hg5 mi
2:30 am48 °FClear.3 mph87%30.01 "Hg5 mi
2:00 am46 °FFog.5 mph93%30.04 "HgN/A
1:30 am45 °FFog.3 mph93%30.04 "Hg5 mi
1:00 am46 °FLight fog.3 mph93%30.04 "HgN/A
12:30 am46 °FCool.5 mph93%30.04 "Hg1 mi
12:00 am45 °FLight fog.1 mph93%30.04 "Hg4 mi
Weather by CustomWeather, © 2019

See weather overview